Regional Weather Roundup
Issued by NWS

Home | Current Version | Previous Version | Graphics & Text | Print | Product List | Glossary On
Versions: 1 2 3 4 5 6 7 8 9 10 11 12 13 14 15 16 17 18 19 20 21 22 23 24 25 26 27 28 29 30 31 32 33 34 35 36 37 38 39 40 41 42 43 44 45 46 47 48 49 50
000
ASUS44 KMEG 032310
RWRTN
TENNESSEE HOURLY STATE WEATHER ROUNDUP
NATIONAL WEATHER SERVICE MEMPHIS TN
500 PM CST TUE MAR 03 2015

TNZ002-004-019-021-049-052-054-088>092-040000-
WEST TENNESSEE

CITY           SKY/WX    TMP DP  RH WIND       PRES   REMARKS
MEMPHIS INTL   LGT RAIN  57  55  94 SW7       29.92F VSB 1/2
NWS MEMPHIS      N/A     58 N/A N/A MISG        N/A
JACKSON        CLOUDY    60  58  92 S10       29.90F
DYERSBURG      CLOUDY    61  46  59 SW5       29.89S
UNION CITY     CLOUDY    57  57 100 SW10      29.87R
PARIS          CLOUDY    57  55  94 SW13      29.89F
LEXINGTON      CLOUDY    57  57 100 SW6       29.92S VSB 1
SAVANNAH       CLOUDY    61  61 100 S8        29.94F
$$

TNZ008-025-027-028-033-062-065-066-040000-
NORTH MIDDLE TENNESSEE

CITY           SKY/WX    TMP DP  RH WIND       PRES   REMARKS
NASHVILLE      CLOUDY    62  58  86 S14       29.94S
CLARKSVILLE    LGT RAIN  62  59  90 SW13      29.89S FOG
SMYRNA         CLOUDY    60  58  93 S7        29.96S
COOKEVILLE     CLOUDY    61  57  88 SW9       29.96F
CROSSVILLE     CLOUDY    54  52  93 S9        30.00F
$$

TNZ061-075-076-078-094-096-097-040000-
SOUTH MIDDLE TENNESSEE

CITY           SKY/WX    TMP DP  RH WIND       PRES   REMARKS
FAYETTEVILLE   CLOUDY    55  54  94 S10         N/A
TULLAHOMA      CLOUDY    55  55 100 S8        30.00F
WINCHESTER     CLOUDY    55  55 100 SE7       30.01F
MCMINNVILLE    CLOUDY    61  61 100 SW7       29.98F
COLUMBIA       CLOUDY   N/A N/A N/A S8        29.93F
SHELBYVILLE    CLOUDY    61  57  88 S8        29.98F
$$

TNZ017-018-042-046-047-040000-
NORTHEAST TENNESSEE

CITY           SKY/WX    TMP DP  RH WIND       PRES   REMARKS
TRI CITIES     CLOUDY    49  46  90 N3        30.02S
ELIZABETHTON   CLOUDY    52  45  76 CALM      30.01S
$$

TNZ012-013-036-069-073-074-040000-
CENTRAL EAST TENNESSEE

CITY           SKY/WX    TMP DP  RH WIND       PRES   REMARKS
KNOXVILLE      CLOUDY    49  47  93 CALM      30.03S FOG
OAK RIDGE      CLOUDY    49  48  97 CALM      30.04S FOG
GATLINBURG     CLOUDY    48  46  93 NW5       30.03R
MORRISTOWN     CLOUDY    46  46 100 CALM      30.04R
$$

TNZ083-085-099-040000-
SOUTHEAST TENNESSEE

CITY           SKY/WX    TMP DP  RH WIND       PRES   REMARKS
CHATTANOOGA    LGT RAIN  54  52  93 S6        30.06S
$$

SKY/WX REPORTED AS FAIR MEANS FEW OR NO CLOUDS BELOW
12 THOUSAND FEET.



USA.gov is the U.S. government's official web portal to all federal, state and local government web resources and services.